Regional Weather Roundup
Issued by NWS Charleston, SC

Current Version | Previous Version | Text Only | Print | Product List | Glossary Off
Versions: 1 2 3 4 5 6 7 8 9 10 11 12 13 14 15 16 17 18 19 20 21 22 23 24 25 26 27 28 29 30 31 32 33 34 35 36 37 38 39 40 41 42 43 44 45 46 47 48 49 50

000
ASUS42 KCHS 301813
RWRCHS

REGIONAL WEATHER ROUNDUP
NATIONAL WEATHER SERVICE CHARLESTON SC
200 PM EDT FRI SEP 30 2016

NOTE: "FAIR" INDICATES FEW OR NO CLOUDS BELOW 12,000 FEET WITH NO
SIGNIFICANT WEATHER AND/OR OBSTRUCTIONS TO VISIBILITY.

NOT ALL STATIONS ARE QUALITY CONTROLLED. USE DATA WITH CAUTION...
ESPECIALLY DEWPOINT OBSERVATIONS.

SCZ027-030-031-034>040-042>050-301900-
...SOUTHEAST SOUTH CAROLINA...

CITY           SKY/WX    TMP DP  RH WIND       PRES   REMARKS
N CHARLESTON   MOSUNNY   86  63  45 VRB5      29.98F
6HR MIN TEMP:  70; 6HR MAX TEMP:  87;

WATERFRONT PRK   N/A     84  67  56 VRB2      29.98F
MOUNT PLEASANT FAIR      86  66  51 W7        29.99F
JOHNS ISLAND     N/A     86  64  48 SW7       29.99F
PINOPOLIS        N/A     81  70  69 CALM      29.93F
MONCKS CORNER  FAIR      84  59  42 SW9       29.98F
SUMMERVILLE    FAIR      86  61  42 SW7       30.00F
BEAUFORT MCAS  SUNNY     85  59  41 W8        30.00F
6HR MIN TEMP:  70; 6HR MAX TEMP:  86;

BEAUFORT ARPT  FAIR      84  61  45 SW8       30.00F
HILTON HEAD IS SUNNY     88  61  40 W6        30.01F
WALTERBORO     CLEAR     86  55  35 SW7       30.01F
ALLENDALE      FAIR      81  52  36 VRB5      30.00F

...SOUTHERN MIDLANDS AND PEE DEE...

CITY           SKY/WX    TMP DP  RH WIND       PRES   REMARKS
GEORGETOWN     MOCLDY    82  68  61 S5        29.99F
KINGSTREE      FAIR      86  61  42 S7        29.98F
ORANGEBURG     SUNNY     83  54  36 W7        30.00F
6HR MIN TEMP:  62; 6HR MAX TEMP:  83;

BARNWELL       NOT AVBL
AIKEN          FAIR      77  46  33 S8G14     30.04F
MANNING        FAIR      82  57  42 SW8       29.99F
COLUMBIA       MOSUNNY   83  46  27 SW13      29.98F
6HR MIN TEMP:  60; 6HR MAX TEMP:  83;

SUMTER         SUNNY     84  56  38 SW10      29.97F
6HR MIN TEMP:  66; 6HR MAX TEMP:  84;

FLORENCE       SUNNY     86  61  42 S7        29.98F
6HR MIN TEMP:  72; 6HR MAX TEMP:  86;

MYRTLE BEACH   MOSUNNY   84  70  61 S12       30.00F
N MYRTLE BEACH CLOUDY    82  73  74 S9        29.99S
6HR MIN TEMP:  75; 6HR MAX TEMP:  83; 6HR PCP:  0.67;


$$

GAZ063-065-086>088-099>101-113>116-118-119-134>141-150-301900-
...SOUTHEAST GEORGIA...

CITY           SKY/WX    TMP DP  RH WIND       PRES   REMARKS
SAVANNAH ARPT  MOSUNNY   85  54  34 SW10      30.01F
6HR MIN TEMP:  63; 6HR MAX TEMP:  86;

HUNTER AAF     SUNNY     85  66  52 SW5       29.98F
6HR MIN TEMP:  64; 6HR MAX TEMP:  86;

FORT STEWART   SUNNY     84  56  38 SW2       29.99F
6HR MIN TEMP:  63; 6HR MAX TEMP:  84;

STATESBORO     SUNNY     82  56  40 SW6       30.02F
SYLVANIA       NOT AVBL
CLAXTON        FAIR      82  55  39 SW8       30.02F

...CSRA...CENTRAL AND FAR SOUTHEAST GEORGIA...

CITY           SKY/WX    TMP DP  RH WIND       PRES   REMARKS
THOMSON        SUNNY     82  50  33 SW8       30.05F
AUGUSTA-BUSH   SUNNY     81  48  31 SW9       30.00F
6HR MIN TEMP:  55; 6HR MAX TEMP:  81;

AUGUSTA-DANIEL SUNNY     80  44  27 SW9       30.01F
SWAINSBORO     FAIR      79  46  31 W7        30.03F
VIDALIA        SUNNY     81  55  41 W8        30.03F
EASTMAN        FAIR      80  24  12 W8        30.06F
HAZLEHURST     FAIR      82  51  34 N9G16     30.02F
ALMA           SUNNY     81  52  36 VRB6      30.03F
6HR MIN TEMP:  61; 6HR MAX TEMP:  82;

WAYCROSS       SUNNY     86  58  37 W6        30.02F
JESUP          FAIR      86  61  42 W9        30.02F
BAXLEY         FAIR      81  57  44 NW6       30.02F
BRUNSWICK      SUNNY     86  63  45 SW5       30.02F
SAINT SIMONS   SUNNY     84  60  44 SW7       30.01F
6HR MIN TEMP:  68; 6HR MAX TEMP:  84;


$$

SCZ027-028-034-036>038-045-046-048>050-GAZ119-141-301900-
...LAKE AND SUPPLEMENTAL COASTAL OBSERVATIONS...

STATION/POSITION TIME  TEMP    WIND        PRES    WAVE   SWELL
                       AIR SEA DIR/SP/G            HT/PER HT/PER/DIR
                 (UTC) (F)     (DEG/KT/KT) (MB)    (FT/S) (FT/S/D)
WINYAH BAY       1645   83     210/  5     1015.0
LAKE MURRAY      1720   75     240/  4/ 10 1015.6F
ACE BASIN NERRS  1645   83     250/  1     1017.0
FORT PULASKI     1748   82 81  270/  7/  9 1016.4F
SAPELO ISLAND    1700   84     270/  2     1017.0

$$

ANZ835-935-AMZ111-154-330-350-352-354-370-450-454-472-301900-
...C-MAN AND BUOY OBSERVATIONS...

STATION/POSITION TIME  TEMP    WIND        PRES    WAVE   SWELL
                       AIR SEA DIR/SP/G            HT/PER HT/PER/DIR
                 (UTC) (F)     (DEG/KT/KT) (MB)    (FT/S) (FT/S/D)
BUOY 41004       1750   81 82  210/ 10/ 10 1015.6F   3/ 6   3/200/ 6
BUOY 41008       1750   78 83  270/  4/  6 1016.6F   2/10   2/ 60/10
FOLLY BEACH CMAN 1800   81     190/ 10/ 12 1015.8F
CAPERS NEARSHORE 1708   80 82  210/  8/ 12 1015.9F
FRIPP NEARSHORE  NOT AVBL


STATION/POSITION TIME  TEMP    WIND        PRES    WAVE   SWELL
                       AIR SEA DIR/SP/G            HT/PER HT/PER/DIR
                 (UTC) (F)     (DEG/KT/KT) (MB)    (FT/S) (FT/S/D)
5E ST. MARYS GA  1701      84                N/A     2/11
FRYING PAN BUOY  1750   81 82  160/ 14/ 17 1016.1R   4/ 6   2/140/ 9
BUOY 41025       1750   81 78  160/  6/  8 1017.8F   5/11   5/ 20/11
CAPE LOOKOUT NC  1800   74     290/  3/  4 1016.9F
BUOY 41002       1750   82 83  180/ 14/ 16 1018.2F   4/10   2/350/10
BUOY 41010       NOT AVBL
ST AUGUSTINE FL  1800   81 84  120/  9/ 10 1017.0F


$$




USA.gov is the U.S. government's official web portal to all federal, state and local government web resources and services.